"Time","Value","Approval","myLocation"
"2023-03-30 00:00",3.65107351555137,"Approved","OW501"
"2023-03-30 01:00",3.64607483506126,"Approved","OW501"
"2023-03-30 02:00",3.64507615457116,"Approved","OW501"
"2023-03-30 03:00",3.64407747408106,"Approved","OW501"
"2023-03-30 04:00",3.64407879359095,"Approved","OW501"
"2023-03-30 05:00",3.64308011310085,"Approved","OW501"
"2023-03-30 06:00",3.64108143261074,"Approved","OW501"
"2023-03-30 07:00",3.64008275212064,"Approved","OW501"
"2023-03-30 08:00",3.63908407163054,"Approved","OW501"
"2023-03-30 09:00",3.63808539114043,"Approved","OW501"
"2023-03-30 10:00",3.63708671065033,"Approved","OW501"
"2023-03-30 11:00",3.63608803016023,"Approved","OW501"
"2023-03-30 12:00",3.63508934967012,"Approved","OW501"
"2023-03-30 13:00",3.63509066918002,"Approved","OW501"
"2023-03-30 14:00",3.63409198868992,"Approved","OW501"
"2023-03-30 15:00",3.63209330819981,"Approved","OW501"
"2023-03-30 16:00",3.63409462770971,"Approved","OW501"
"2023-03-30 17:00",3.6320959472196,"Approved","OW501"
"2023-03-30 18:00",3.6320972667295,"Approved","OW501"
"2023-03-30 19:00",3.6290985862394,"Approved","OW501"
"2023-03-30 20:00",3.62809990574929,"Approved","OW501"
"2023-03-30 21:00",3.63010122525919,"Approved","OW501"
"2023-03-30 22:00",3.62910254476909,"Approved","OW501"
"2023-03-30 23:00",3.62710386427898,"Approved","OW501"
"2023-03-31 00:00",3.62810518378888,"Approved","OW501"
"2023-03-31 01:00",3.62710650329877,"Approved","OW501"
"2023-03-31 02:00",3.62410782280867,"Approved","OW501"
"2023-03-31 03:00",3.62310914231857,"Approved","OW501"
"2023-03-31 04:00",3.62211046182846,"Approved","OW501"
"2023-03-31 05:00",3.62211178133836,"Approved","OW501"
"2023-03-31 06:00",3.62111310084826,"Approved","OW501"
"2023-03-31 07:00",3.61911442035815,"Approved","OW501"
"2023-03-31 08:00",3.61911573986805,"Approved","OW501"
"2023-03-31 09:00",3.61711705937795,"Approved","OW501"
"2023-03-31 10:00",3.61611837888784,"Approved","OW501"
"2023-03-31 11:00",3.61511969839774,"Approved","OW501"
"2023-03-31 12:00",3.61412101790763,"Approved","OW501"
"2023-03-31 13:00",3.61312233741753,"Approved","OW501"
"2023-03-31 14:00",3.61212365692743,"Approved","OW501"
"2023-03-31 15:00",3.61112497643732,"Approved","OW501"
"2023-03-31 16:00",3.61312629594722,"Approved","OW501"
"2023-03-31 17:00",3.61412761545712,"Approved","OW501"
"2023-03-31 18:00",3.60912893496701,"Approved","OW501"
"2023-03-31 19:00",3.61113025447691,"Approved","OW501"
"2023-03-31 20:00",3.6051315739868,"Approved","OW501"
"2023-03-31 21:00",3.6041328934967,"Approved","OW501"
"2023-03-31 22:00",3.6061342130066,"Approved","OW501"
"2023-03-31 23:00",3.60313553251649,"Approved","OW501"
"2023-04-01 00:00",3.60313685202639,"Approved","OW501"
"2023-04-01 01:00",3.60013817153629,"Approved","OW501"
"2023-04-01 02:00",3.60013949104618,"Approved","OW501"
"2023-04-01 03:00",3.59814081055608,"Approved","OW501"
"2023-04-01 04:00",3.59714213006598,"Approved","OW501"
"2023-04-01 05:00",3.59614344957587,"Approved","OW501"
"2023-04-01 06:00",3.59514476908577,"Approved","OW501"
"2023-04-01 07:00",3.59414608859566,"Approved","OW501"
"2023-04-01 08:00",3.59214740810556,"Approved","OW501"
"2023-04-01 09:00",3.59114872761546,"Approved","OW501"
"2023-04-01 10:00",3.59015004712535,"Approved","OW501"
"2023-04-01 11:00",3.58915136663525,"Approved","OW501"
"2023-04-01 12:00",3.58815268614515,"Approved","OW501"
"2023-04-01 13:00",3.58815400565504,"Approved","OW501"
"2023-04-01 14:00",3.58715532516494,"Approved","OW501"
"2023-04-01 15:00",3.58615664467484,"Approved","OW501"
"2023-04-01 16:00",3.58415796418473,"Approved","OW501"
"2023-04-01 17:00",3.58815928369463,"Approved","OW501"
"2023-04-01 18:00",3.58616060320452,"Approved","OW501"
"2023-04-01 19:00",3.58316192271442,"Approved","OW501"
"2023-04-01 20:00",3.58616324222432,"Approved","OW501"
"2023-04-01 21:00",3.58016456173421,"Approved","OW501"
"2023-04-01 22:00",3.58116588124411,"Approved","OW501"
"2023-04-01 23:00",3.58216720075401,"Approved","OW501"
"2023-04-02 00:00",3.5771685202639,"Approved","OW501"
"2023-04-02 01:00",3.5751698397738,"Approved","OW501"
"2023-04-02 02:00",3.57317115928369,"Approved","OW501"
"2023-04-02 03:00",3.57117247879359,"Approved","OW501"
"2023-04-02 04:00",3.57017379830349,"Approved","OW501"
"2023-04-02 05:00",3.56817511781338,"Approved","OW501"
"2023-04-02 06:00",3.56617643732328,"Approved","OW501"
"2023-04-02 07:00",3.56417775683318,"Approved","OW501"
"2023-04-02 08:00",3.56217907634307,"Approved","OW501"
"2023-04-02 09:00",3.56018039585297,"Approved","OW501"
"2023-04-02 10:00",3.56018171536287,"Approved","OW501"
"2023-04-02 11:00",3.56018303487276,"Approved","OW501"
"2023-04-02 12:00",3.55918435438266,"Approved","OW501"
"2023-04-02 13:00",3.55818567389255,"Approved","OW501"
"2023-04-02 14:00",3.55618699340245,"Approved","OW501"
"2023-04-02 15:00",3.55618831291235,"Approved","OW501"
"2023-04-02 16:00",3.55418963242224,"Approved","OW501"
"2023-04-02 17:00",3.55719095193214,"Approved","OW501"
"2023-04-02 18:00",3.55419227144204,"Approved","OW501"
"2023-04-02 19:00",3.55319359095193,"Approved","OW501"
"2023-04-02 20:00",3.55419491046183,"Approved","OW501"
"2023-04-02 21:00",3.55319622997173,"Approved","OW501"
"2023-04-02 22:00",3.55019754948162,"Approved","OW501"
"2023-04-02 23:00",3.54919886899152,"Approved","OW501"
"2023-04-03 00:00",3.54320018850141,"Approved","OW501"
"2023-04-03 01:00",3.54320150801131,"Approved","OW501"
"2023-04-03 02:00",3.54320282752121,"Approved","OW501"
"2023-04-03 03:00",3.5422041470311,"Approved","OW501"
"2023-04-03 04:00",3.537205466541,"Approved","OW501"
"2023-04-03 05:00",3.5392067860509,"Approved","OW501"
"2023-04-03 06:00",3.53920810556079,"Approved","OW501"
"2023-04-03 07:00",3.53920942507069,"Approved","OW501"
"2023-04-03 08:00",3.53621074458058,"Approved","OW501"
"2023-04-03 09:00",3.53421206409048,"Approved","OW501"
"2023-04-03 10:00",3.53421338360038,"Approved","OW501"
"2023-04-03 11:00",3.53421470311027,"Approved","OW501"
"2023-04-03 12:00",3.53221602262017,"Approved","OW501"
"2023-04-03 13:00",3.53021734213007,"Approved","OW501"
"2023-04-03 14:00",3.53021866163996,"Approved","OW501"
"2023-04-03 15:00",3.53021998114986,"Approved","OW501"
"2023-04-03 16:00",3.53122130065975,"Approved","OW501"
"2023-04-03 17:00",3.53322262016965,"Approved","OW501"
"2023-04-03 18:00",3.53222393967955,"Approved","OW501"
"2023-04-03 19:00",3.53322525918944,"Approved","OW501"
"2023-04-03 20:00",3.52622657869934,"Approved","OW501"
"2023-04-03 21:00",3.53122789820924,"Approved","OW501"
"2023-04-03 22:00",3.52722921771913,"Approved","OW501"
"2023-04-03 23:00",3.52623053722903,"Approved","OW501"
"2023-04-04 00:00",3.52423185673893,"Approved","OW501"
"2023-04-04 01:00",3.52223317624882,"Approved","OW501"
"2023-04-04 02:00",3.52723449575872,"Approved","OW501"
"2023-04-04 03:00",3.52323581526861,"Approved","OW501"
"2023-04-04 04:00",3.52223713477851,"Approved","OW501"
"2023-04-04 05:00",3.52123845428841,"Approved","OW501"
"2023-04-04 06:00",3.5192397737983,"Approved","OW501"
"2023-04-04 07:00",3.5182410933082,"Approved","OW501"
"2023-04-04 08:00",3.5192424128181,"Approved","OW501"
"2023-04-04 09:00",3.51924373232799,"Approved","OW501"
"2023-04-04 10:00",3.51924505183789,"Approved","OW501"
"2023-04-04 11:00",3.51724637134779,"Approved","OW501"
"2023-04-04 12:00",3.51524769085768,"Approved","OW501"
"2023-04-04 13:00",3.51424901036758,"Approved","OW501"
"2023-04-04 14:00",3.51425032987747,"Approved","OW501"
"2023-04-04 15:00",3.51525164938737,"Approved","OW501"
"2023-04-04 16:00",3.51825296889727,"Approved","OW501"
"2023-04-04 17:00",3.51625428840716,"Approved","OW501"
"2023-04-04 18:00",3.51825560791706,"Approved","OW501"
"2023-04-04 19:00",3.51725692742696,"Approved","OW501"
"2023-04-04 20:00",3.51625824693685,"Approved","OW501"
"2023-04-04 21:00",3.51525956644675,"Approved","OW501"
"2023-04-04 22:00",3.51126088595664,"Approved","OW501"
"2023-04-04 23:00",3.51426220546654,"Approved","OW501"
"2023-04-05 00:00",3.51326352497644,"Approved","OW501"
"2023-04-05 01:00",3.51026484448633,"Approved","OW501"
"2023-04-05 02:00",3.51026616399623,"Approved","OW501"
"2023-04-05 03:00",3.50926748350613,"Approved","OW501"
"2023-04-05 04:00",3.51326880301602,"Approved","OW501"
"2023-04-05 05:00",3.51027012252592,"Approved","OW501"
"2023-04-05 06:00",3.50827144203582,"Approved","OW501"
"2023-04-05 07:00",3.50727276154571,"Approved","OW501"
"2023-04-05 08:00",3.50627408105561,"Approved","OW501"
"2023-04-05 09:00",3.5052754005655,"Approved","OW501"
"2023-04-05 10:00",3.5052767200754,"Approved","OW501"
"2023-04-05 11:00",3.5062780395853,"Approved","OW501"
"2023-04-05 12:00",3.50627935909519,"Approved","OW501"
"2023-04-05 13:00",3.50528067860509,"Approved","OW501"
"2023-04-05 14:00",3.50428199811499,"Approved","OW501"
"2023-04-05 15:00",3.50528331762488,"Approved","OW501"
"2023-04-05 16:00",3.50528463713478,"Approved","OW501"
"2023-04-05 17:00",3.50428595664467,"Approved","OW501"
"2023-04-05 18:00",3.50628727615457,"Approved","OW501"
"2023-04-05 19:00",3.50928859566447,"Approved","OW501"
"2023-04-05 20:00",3.50328991517436,"Approved","OW501"
"2023-04-05 21:00",3.50629123468426,"Approved","OW501"
"2023-04-05 22:00",3.50529255419416,"Approved","OW501"
"2023-04-05 23:00",3.50529387370405,"Approved","OW501"
"2023-04-06 00:00",3.50529519321395,"Approved","OW501"
"2023-04-06 01:00",3.49829651272385,"Approved","OW501"
"2023-04-06 02:00",3.49829783223374,"Approved","OW501"
"2023-04-06 03:00",3.49729915174364,"Approved","OW501"
"2023-04-06 04:00",3.49730047125353,"Approved","OW501"
"2023-04-06 05:00",3.49730179076343,"Approved","OW501"
"2023-04-06 06:00",3.49730311027333,"Approved","OW501"
"2023-04-06 07:00",3.49630442978322,"Approved","OW501"
"2023-04-06 08:00",3.49630574929312,"Approved","OW501"
"2023-04-06 09:00",3.49530706880302,"Approved","OW501"
"2023-04-06 10:00",3.49430838831291,"Approved","OW501"
"2023-04-06 11:00",3.49430970782281,"Approved","OW501"
"2023-04-06 12:00",3.4933110273327,"Approved","OW501"
"2023-04-06 13:00",3.4933123468426,"Approved","OW501"
"2023-04-06 14:00",3.4933136663525,"Approved","OW501"
"2023-04-06 15:00",3.49331498586239,"Approved","OW501"
"2023-04-06 16:00",3.49431630537229,"Approved","OW501"
"2023-04-06 17:00",3.49531762488219,"Approved","OW501"
"2023-04-06 18:00",3.49631894439208,"Approved","OW501"
"2023-04-06 19:00",3.49132026390198,"Approved","OW501"
"2023-04-06 20:00",3.49232158341188,"Approved","OW501"
"2023-04-06 21:00",3.49832290292177,"Approved","OW501"
"2023-04-06 22:00",3.48932422243167,"Approved","OW501"
"2023-04-06 23:00",3.48632554194156,"Approved","OW501"
"2023-04-07 00:00",3.48632686145146,"Approved","OW501"
"2023-04-07 01:00",3.48432818096136,"Approved","OW501"
"2023-04-07 02:00",3.48132950047125,"Approved","OW501"
"2023-04-07 03:00",3.47933081998115,"Approved","OW501"
"2023-04-07 04:00",3.47733213949105,"Approved","OW501"
"2023-04-07 05:00",3.47633345900094,"Approved","OW501"
"2023-04-07 06:00",3.47433477851084,"Approved","OW501"
"2023-04-07 07:00",3.47333609802074,"Approved","OW501"
"2023-04-07 08:00",3.47133741753063,"Approved","OW501"
"2023-04-07 09:00",3.47033873704053,"Approved","OW501"
"2023-04-07 10:00",3.46834005655042,"Approved","OW501"
"2023-04-07 11:00",3.46634137606032,"Approved","OW501"
"2023-04-07 12:00",3.46534269557022,"Approved","OW501"
"2023-04-07 13:00",3.46334401508011,"Approved","OW501"
"2023-04-07 14:00",3.46034533459001,"Approved","OW501"
"2023-04-07 15:00",3.45934665409991,"Approved","OW501"
"2023-04-07 16:00",3.4573479736098,"Approved","OW501"
"2023-04-07 17:00",3.4563492931197,"Approved","OW501"
"2023-04-07 18:00",3.45435061262959,"Approved","OW501"
"2023-04-07 19:00",3.45035193213949,"Approved","OW501"
"2023-04-07 20:00",3.44935325164939,"Approved","OW501"
"2023-04-07 21:00",3.45135457115928,"Approved","OW501"
"2023-04-07 22:00",3.44335589066918,"Approved","OW501"
"2023-04-07 23:00",3.44135721017908,"Approved","OW501"
"2023-04-08 00:00",3.43935852968897,"Approved","OW501"
"2023-04-08 01:00",3.43435984919887,"Approved","OW501"
"2023-04-08 02:00",3.43236116870877,"Approved","OW501"
"2023-04-08 03:00",3.42736248821866,"Approved","OW501"
"2023-04-08 04:00",3.42436380772856,"Approved","OW501"
"2023-04-08 05:00",3.42236512723845,"Approved","OW501"
"2023-04-08 06:00",3.41936644674835,"Approved","OW501"
"2023-04-08 07:00",3.41736776625825,"Approved","OW501"
"2023-04-08 08:00",3.41336908576814,"Approved","OW501"
"2023-04-08 09:00",3.41037040527804,"Approved","OW501"
"2023-04-08 10:00",3.40837172478794,"Approved","OW501"
"2023-04-08 11:00",3.40537304429783,"Approved","OW501"
"2023-04-08 12:00",3.40237436380773,"Approved","OW501"
"2023-04-08 13:00",3.40037568331763,"Approved","OW501"
"2023-04-08 14:00",3.39837700282752,"Approved","OW501"
"2023-04-08 15:00",3.39537832233742,"Approved","OW501"
"2023-04-08 16:00",3.39737964184731,"Approved","OW501"
"2023-04-08 17:00",3.39638096135721,"Approved","OW501"
"2023-04-08 18:00",3.39238228086711,"Approved","OW501"
"2023-04-08 19:00",3.391383600377,"Approved","OW501"
"2023-04-08 20:00",3.3883849198869,"Approved","OW501"
"2023-04-08 21:00",3.3833862393968,"Approved","OW501"
"2023-04-08 22:00",3.38338755890669,"Approved","OW501"
"2023-04-08 23:00",3.38338887841659,"Approved","OW501"
"2023-04-09 00:00",3.37739019792648,"Approved","OW501"
"2023-04-09 01:00",3.37339151743638,"Approved","OW501"
"2023-04-09 02:00",3.37139283694628,"Approved","OW501"
"2023-04-09 03:00",3.36839415645617,"Approved","OW501"
"2023-04-09 04:00",3.35939547596607,"Approved","OW501"
"2023-04-09 05:00",3.36239679547597,"Approved","OW501"
"2023-04-09 06:00",3.35839811498586,"Approved","OW501"
"2023-04-09 07:00",3.35439943449576,"Approved","OW501"
"2023-04-09 08:00",3.35040075400566,"Approved","OW501"
"2023-04-09 09:00",3.34740207351555,"Approved","OW501"
"2023-04-09 10:00",3.34240339302545,"Approved","OW501"
"2023-04-09 11:00",3.33840471253534,"Approved","OW501"
"2023-04-09 12:00",3.33440603204524,"Approved","OW501"
"2023-04-09 13:00",3.32940735155514,"Approved","OW501"
"2023-04-09 14:00",3.32540867106503,"Approved","OW501"
"2023-04-09 15:00",3.32240999057493,"Approved","OW501"
"2023-04-09 16:00",3.32341131008483,"Approved","OW501"
"2023-04-09 17:00",3.31841262959472,"Approved","OW501"
"2023-04-09 18:00",3.31441394910462,"Approved","OW501"
"2023-04-09 19:00",3.31541526861451,"Approved","OW501"
"2023-04-09 20:00",3.31041658812441,"Approved","OW501"
"2023-04-09 21:00",3.30841790763431,"Approved","OW501"
"2023-04-09 22:00",3.3034192271442,"Approved","OW501"
"2023-04-09 23:00",3.2974205466541,"Approved","OW501"
"2023-04-10 00:00",3.288421866164,"Approved","OW501"
"2023-04-10 01:00",3.28242318567389,"Approved","OW501"
"2023-04-10 02:00",3.27742450518379,"Approved","OW501"
"2023-04-10 03:00",3.27242582469369,"Approved","OW501"
"2023-04-10 04:00",3.26742714420358,"Approved","OW501"
"2023-04-10 05:00",3.26042846371348,"Approved","OW501"
"2023-04-10 06:00",3.25442978322337,"Approved","OW501"
"2023-04-10 07:00",3.24943110273327,"Approved","OW501"
"2023-04-10 08:00",3.24543242224317,"Approved","OW501"
"2023-04-10 09:00",3.24143374175306,"Approved","OW501"
"2023-04-10 10:00",3.23343506126296,"Approved","OW501"
"2023-04-10 11:00",3.22543638077286,"Approved","OW501"
"2023-04-10 12:00",3.22043770028275,"Approved","OW501"
"2023-04-10 13:00",3.21543901979265,"Approved","OW501"
"2023-04-10 14:00",3.20844033930254,"Approved","OW501"
"2023-04-10 15:00",3.20344165881244,"Approved","OW501"
"2023-04-10 16:00",3.19944297832234,"Approved","OW501"
"2023-04-10 17:00",3.19444429783223,"Approved","OW501"
"2023-04-10 18:00",3.18644561734213,"Approved","OW501"
"2023-04-10 19:00",3.17944693685203,"Approved","OW501"
"2023-04-10 20:00",3.17444825636192,"Approved","OW501"
"2023-04-10 21:00",3.16844957587182,"Approved","OW501"
"2023-04-10 22:00",3.16145089538172,"Approved","OW501"
"2023-04-10 23:00",3.16045221489161,"Approved","OW501"
"2023-04-11 00:00",3.15745353440151,"Approved","OW501"
"2023-04-11 01:00",3.1464548539114,"Approved","OW501"
"2023-04-11 02:00",3.1404561734213,"Approved","OW501"
"2023-04-11 03:00",3.1384574929312,"Approved","OW501"
"2023-04-11 04:00",3.13345881244109,"Approved","OW501"
"2023-04-11 05:00",3.12846013195099,"Approved","OW501"
"2023-04-11 06:00",3.12346145146089,"Approved","OW501"
"2023-04-11 07:00",3.11846277097078,"Approved","OW501"
"2023-04-11 08:00",3.11446409048068,"Approved","OW501"
"2023-04-11 09:00",3.11246540999058,"Approved","OW501"
"2023-04-11 10:00",3.10746672950047,"Approved","OW501"
"2023-04-11 11:00",3.10346804901037,"Approved","OW501"
"2023-04-11 12:00",3.09846936852026,"Approved","OW501"
"2023-04-11 13:00",3.09447068803016,"Approved","OW501"
"2023-04-11 14:00",3.09347200754006,"Approved","OW501"
"2023-04-11 15:00",3.09147332704995,"Approved","OW501"
"2023-04-11 16:00",3.09147464655985,"Approved","OW501"
"2023-04-11 17:00",3.08847596606975,"Approved","OW501"
"2023-04-11 18:00",3.08647728557964,"Approved","OW501"
"2023-04-11 19:00",3.08347860508954,"Approved","OW501"
"2023-04-11 20:00",3.08047992459943,"Approved","OW501"
"2023-04-11 21:00",3.07548124410933,"Approved","OW501"
"2023-04-11 22:00",3.07148256361923,"Approved","OW501"
"2023-04-11 23:00",3.06948388312912,"Approved","OW501"
"2023-04-12 00:00",3.06948520263902,"Approved","OW501"
"2023-04-12 01:00",3.06748652214892,"Approved","OW501"
"2023-04-12 02:00",3.06348784165881,"Approved","OW501"
"2023-04-12 03:00",3.05948916116871,"Approved","OW501"
"2023-04-12 04:00",3.0624904806786,"Approved","OW501"
"2023-04-12 05:00",3.0564918001885,"Approved","OW501"
"2023-04-12 06:00",3.0534931196984,"Approved","OW501"
"2023-04-12 07:00",3.05349443920829,"Approved","OW501"
"2023-04-12 08:00",3.04949575871819,"Approved","OW501"
"2023-04-12 09:00",3.04649707822809,"Approved","OW501"
"2023-04-12 10:00",3.04649839773798,"Approved","OW501"
"2023-04-12 11:00",3.04549971724788,"Approved","OW501"
"2023-04-12 12:00",3.04250103675778,"Approved","OW501"
"2023-04-12 13:00",3.04050235626767,"Approved","OW501"
"2023-04-12 14:00",3.04050367577757,"Approved","OW501"
"2023-04-12 15:00",3.04050499528746,"Approved","OW501"
"2023-04-12 16:00",3.04050631479736,"Approved","OW501"
"2023-04-12 17:00",3.03750763430726,"Approved","OW501"
"2023-04-12 18:00",3.03250895381715,"Approved","OW501"
"2023-04-12 19:00",3.03851027332705,"Approved","OW501"
"2023-04-12 20:00",3.03451159283695,"Approved","OW501"
"2023-04-12 21:00",3.03251291234684,"Approved","OW501"
"2023-04-12 22:00",3.02751423185674,"Approved","OW501"
"2023-04-12 23:00",3.02751555136664,"Approved","OW501"
"2023-04-13 00:00",3.02551687087653,"Approved","OW501"
"2023-04-13 01:00",3.02551819038643,"Approved","OW501"
"2023-04-13 02:00",3.02351950989632,"Approved","OW501"
"2023-04-13 03:00",3.02252082940622,"Approved","OW501"
"2023-04-13 04:00",3.02152214891612,"Approved","OW501"
"2023-04-13 05:00",3.01952346842601,"Approved","OW501"
"2023-04-13 06:00",3.01752478793591,"Approved","OW501"
"2023-04-13 07:00",3.01852610744581,"Approved","OW501"
"2023-04-13 08:00",3.0185274269557,"Approved","OW501"
"2023-04-13 09:00",3.0165287464656,"Approved","OW501"
"2023-04-13 10:00",3.01453006597549,"Approved","OW501"
"2023-04-13 11:00",3.01653138548539,"Approved","OW501"
"2023-04-13 12:00",3.01653270499529,"Approved","OW501"
"2023-04-13 13:00",3.01453402450518,"Approved","OW501"
"2023-04-13 14:00",3.01453534401508,"Approved","OW501"
"2023-04-13 15:00",3.01453666352498,"Approved","OW501"
"2023-04-13 16:00",3.01953798303487,"Approved","OW501"
"2023-04-13 17:00",3.01653930254477,"Approved","OW501"
"2023-04-13 18:00",3.02154062205467,"Approved","OW501"
"2023-04-13 19:00",3.02254194156456,"Approved","OW501"
"2023-04-13 20:00",3.01654326107446,"Approved","OW501"
"2023-04-13 21:00",3.01754458058435,"Approved","OW501"
"2023-04-13 22:00",3.01954590009425,"Approved","OW501"
"2023-04-13 23:00",3.01854721960415,"Approved","OW501"
"2023-04-14 00:00",3.01854853911404,"Approved","OW501"
"2023-04-14 01:00",3.01854985862394,"Approved","OW501"
"2023-04-14 02:00",3.01955117813384,"Approved","OW501"
"2023-04-14 03:00",3.01655249764373,"Approved","OW501"
"2023-04-14 04:00",3.01555381715363,"Approved","OW501"
"2023-04-14 05:00",3.01855513666353,"Approved","OW501"
"2023-04-14 06:00",3.01755645617342,"Approved","OW501"
"2023-04-14 07:00",3.01555777568332,"Approved","OW501"
"2023-04-14 08:00",3.01755909519321,"Approved","OW501"
"2023-04-14 09:00",3.01856041470311,"Approved","OW501"
"2023-04-14 10:00",3.01656173421301,"Approved","OW501"
"2023-04-14 11:00",3.0175630537229,"Approved","OW501"
"2023-04-14 12:00",3.0195643732328,"Approved","OW501"
"2023-04-14 13:00",3.0185656927427,"Approved","OW501"
"2023-04-14 14:00",3.01756701225259,"Approved","OW501"
"2023-04-14 15:00",3.02456833176249,"Approved","OW501"
"2023-04-14 16:00",3.02756965127238,"Approved","OW501"
"2023-04-14 17:00",3.02957097078228,"Approved","OW501"
"2023-04-14 18:00",3.02657229029218,"Approved","OW501"
"2023-04-14 19:00",3.02557360980207,"Approved","OW501"
"2023-04-14 20:00",3.02257492931197,"Approved","OW501"
"2023-04-14 21:00",3.02457624882187,"Approved","OW501"
"2023-04-14 22:00",3.02257756833176,"Approved","OW501"
"2023-04-14 23:00",3.02357888784166,"Approved","OW501"
"2023-04-15 00:00",3.02258020735156,"Approved","OW501"
"2023-04-15 01:00",3.02358152686145,"Approved","OW501"
"2023-04-15 02:00",3.02558284637135,"Approved","OW501"
"2023-04-15 03:00",3.02758416588124,"Approved","OW501"
"2023-04-15 04:00",3.02158548539114,"Approved","OW501"
"2023-04-15 05:00",3.02858680490104,"Approved","OW501"
"2023-04-15 06:00",3.02758812441093,"Approved","OW501"
"2023-04-15 07:00",3.02758944392083,"Approved","OW501"
"2023-04-15 08:00",3.02759076343073,"Approved","OW501"
"2023-04-15 09:00",3.02859208294062,"Approved","OW501"
"2023-04-15 10:00",3.03059340245052,"Approved","OW501"
"2023-04-15 11:00",3.03259472196042,"Approved","OW501"
"2023-04-15 12:00",3.03459604147031,"Approved","OW501"
"2023-04-15 13:00",3.03659736098021,"Approved","OW501"
"2023-04-15 14:00",3.0385986804901,"Approved","OW501"
"2023-04-15 15:00",3.0446,"Approved","OW501"
"2023-04-15 16:00",3.0446013195099,"Approved","OW501"
"2023-04-15 17:00",3.04460263901979,"Approved","OW501"
"2023-04-15 18:00",3.04560395852969,"Approved","OW501"
"2023-04-15 19:00",3.04760527803959,"Approved","OW501"
"2023-04-15 20:00",3.04660659754948,"Approved","OW501"
"2023-04-15 21:00",3.04660791705938,"Approved","OW501"
"2023-04-15 22:00",3.05160923656927,"Approved","OW501"
"2023-04-15 23:00",3.05161055607917,"Approved","OW501"
"2023-04-16 00:00",3.05161187558907,"Approved","OW501"
"2023-04-16 01:00",3.05061319509896,"Approved","OW501"
"2023-04-16 02:00",3.05061451460886,"Approved","OW501"
"2023-04-16 03:00",3.05061583411876,"Approved","OW501"
"2023-04-16 04:00",3.05061715362865,"Approved","OW501"
"2023-04-16 05:00",3.05061847313855,"Approved","OW501"
"2023-04-16 06:00",3.05161979264844,"Approved","OW501"
"2023-04-16 07:00",3.05362111215834,"Approved","OW501"
"2023-04-16 08:00",3.05462243166824,"Approved","OW501"
"2023-04-16 09:00",3.05462375117813,"Approved","OW501"
"2023-04-16 10:00",3.05462507068803,"Approved","OW501"
"2023-04-16 11:00",3.05462639019793,"Approved","OW501"
"2023-04-16 12:00",3.05462770970782,"Approved","OW501"
"2023-04-16 13:00",3.05462902921772,"Approved","OW501"
"2023-04-16 14:00",3.05363034872762,"Approved","OW501"
"2023-04-16 15:00",3.06263166823751,"Approved","OW501"
"2023-04-16 16:00",3.06263298774741,"Approved","OW501"
"2023-04-16 17:00",3.0606343072573,"Approved","OW501"
"2023-04-16 18:00",3.0586356267672,"Approved","OW501"
"2023-04-16 19:00",3.0616369462771,"Approved","OW501"